Regional Weather Roundup
Issued by NWS

Home | Current Version | Previous Version | Graphics & Text | Print | Product List | Glossary On
Versions: 1 2 3 4 5 6 7 8 9 10 11 12 13 14 15 16 17 18 19 20 21 22 23 24 25 26 27 28 29 30 31 32 33 34 35 36 37 38 39 40 41 42 43 44 45 46 47 48 49 50
000
ASUS43 KLMK 280310
RWRKY
KENTUCKY REGIONAL WEATHER ROUNDUP
NATIONAL WEATHER SERVICE LOUISVILLE KY
1100 PM EDT TUE SEP 27 2016

NOTE "FAIR" INDICATES FEW OR NO CLOUDS BELOW 12,000 FEET
WITH NO SIGNIFICANT WEATHER AND/OR OBSTRUCTIONS TO VISIBILITY.

KYZ001>023-026-027-061>063-070>075-280400-
WESTERN AND SOUTH CENTRAL KENTUCKY

CITY           SKY/WX    TMP DP  RH WIND       PRES   REMARKS
PADUCAH        CLEAR     63  49  60 SW6       29.90S
HENDERSON      CLEAR     59  48  67 SW7       29.88S
OWENSBORO      CLEAR    N/A N/A N/A VRB6      29.90R
HOPKINSVILLE   CLEAR     61  50  68 SW5       29.93S
BOWLING GREEN  CLEAR     62  47  57 S6        29.94R
GLASGOW        CLEAR     52  52 100 CALM      29.94S
$$

KYZ024-025-028>034-038-045-046-053-280400-
NORTH CENTRAL KENTUCKY

CITY           SKY/WX    TMP DP  RH WIND       PRES   REMARKS
LOUISVILLE/SDF CLEAR     66  46  48 S7        29.89S
LOUISVILLE/LOU CLEAR     63  49  60 S3        29.90S
FORT KNOX      CLEAR     57  49  74 S3        29.89S
$$

KYZ035>037-039>044-047>052-055>060-089>105-280400-
NORTHEAST KENTUCKY

CITY           SKY/WX    TMP DP  RH WIND       PRES   REMARKS
LEXINGTON      CLEAR     59  44  57 SW7       29.93S
COVINGTON      PTCLDY    59  48  67 S6        29.88S
FRANKFORT      CLEAR     57  46  66 S5        29.90F
$$

KYZ054-064>069-076>088-106>120-280400-
SOUTHEAST KENTUCKY

CITY           SKY/WX    TMP DP  RH WIND       PRES   REMARKS
JACKSON        CLEAR     60  45  57 CALM      29.95S
LONDON         CLEAR     53  47  79 CALM      29.96R
SOMERSET       CLEAR     52  46  82 CALM      29.96S
MIDDLESBORO    CLEAR     52  50  93 CALM      29.97S
MONTICELLO     CLEAR     47  45  93 NE9       29.98R
$$




USA.gov is the U.S. government's official web portal to all federal, state and local government web resources and services.